Location: Rumah Long Bangan
(2.8362°N, 113.7519°E)
Time: 18:17:15
(UTC+00:00)

SL-08 R/B - Pass Details

Date: 24 October 2021
Orbit: 673 x 739 km, 98.5° (Epoch: 07 December)

Event Time Altitude Azimuth Distance (km) Brightness Sun altitude
Rises 21:03:29 0° 186° (S) 3,027 6.7 -16.6°
Reaches altitude 10° 21:05:55 10° 197° (SSW) 2,117 5.7 -16.0°
Maximum altitude 21:09:58 31° 258° (WSW) 1,204 4.0 -15.0°
Enters shadow 21:12:17 20° 304° (NW) 1,567 4.6 -14.5°
